Location: Newark
(25.0000°N, 73.5000°E)
Time: 05:57:05
(UTC+00:00)

Transit 2A Rocket - Pass Details

Date: 06 August 2021
Orbit: 586 x 916 km, 66.7° (Epoch: 23 September)

Event Time Altitude Azimuth Distance (km) Brightness Sun altitude
Rises 17:25:20 0° 337° (NNW) 3,401 9.2 -41.1°
Reaches altitude 10° 17:27:45 10° 338° (NNW) 2,503 8.3 -41.4°
Enters shadow 17:29:37 22° 339° (NNW) 1,832 7.4 -41.6°
